CAPE
9 1 0 0 0 0 0 0 0 0 0 0 0 0 0 0 0 0 0 0 0 0 0 0 0 0 0 0 0 0 0 0 9 34 33 332 667 705 757 1123 1110 1024 1235 713 218
0 1 6 1 0 0 0 0 0 0 0 0 0 0 0 0 0 0 0 0 0 0 0 0 0 0 0 0 0 0 0 0 0 0 0 268 650 727 960 1108 996 754 556 322 161
0 0 0 3 1 0 0 0 0 0 0 0 0 0 0 0 0 0 0 0 0 0 0 0 0 0 0 0 0 0 1 0 0 0 0 180 508 594 682 850 974 647 450 282 182
0 0 0 0 0 3 0 0 0 0 0 0 0 0 0 0 0 0 0 0 0 0 0 0 0 0 0 0 0 0 0 0 0 8 80 299 426 595 596 889 856 570 293 182 111
0 0 0 0 0 1 0 0 0 0 0 0 0 0 0 0 0 0 0 0 0 0 0 0 0 0 0 0 0 0 0 0 5 0 256 248 311 474 654 936 840 492 238 128 67
0 0 0 0 0 1 1 0 0 0 0 0 0 0 0 0 0 0 0 0 0 0 0 0 0 0 0 0 0 0 7 103 18 221 442 483 545 534 724 735 505 333 68 87 104
2 0 0 0 0 0 0 1 0 0 0 0 0 0 0 0 0 0 0 0 0 0 0 0 0 0 0 0 0 0 80 46 120 287 381 323 309 631 433 475 510 303 129 82 140
3 1 0 0 0 0 0 1 0 0 0 0 0 0 0 0 0 0 0 0 0 0 0 0 0 0 0 0 0 0 15 0 0 86 162 250 233 686 319 218 163 142 178 52 180
1 2 0 0 0 0 0 0 0 0 0 0 0 0 0 0 0 0 0 0 0 0 0 0 0 0 0 0 0 0 8 4 16 51 153 175 163 633 490 148 147 79 32 69 124
1 1 2 0 0 0 0 0 0 0 0 0 0 0 0 0 0 0 0 0 0 0 0 0 0 0 0 0 17 18 18 28 92 142 108 131 104 575 629 206 168 180 23 39 82
1 1 2 0 0 0 0 0 0 0 0 0 0 0 0 0 0 0 0 0 0 0 0 0 0 0 0 0 0 0 11 24 23 0 50 31 55 239 623 531 332 326 293 113 85
3 1 1 0 0 0 0 0 0 0 0 0 0 0 0 0 0 0 0 0 0 0 0 0 0 0 0 0 0 1 3 20 2 0 0 16 29 80 493 686 697 613 558 549 369
4 2 2 1 0 2 1 0 0 0 0 0 0 0 0 0 0 0 0 0 0 0 0 0 0 0 0 0 0 2 3 2 0 0 0 0 13 63 130 406 677 582 509 474 456
7 5 2 0 0 1 0 0 0 0 0 0 0 0 0 0 0 0 0 0 0 0 0 0 0 0 0 0 0 0 0 0 0 0 13 0 33 22 66 114 224 374 365 449 415
1 3 4 15 0 4 0 0 0 4 0 0 0 0 0 0 0 0 0 0 0 0 0 0 0 0 0 0 0 2 0 1 3 6 7 7 4 4 0 61 96 264 387 379 416
0 10 5 21 6 0 0 0 1 0 0 0 0 0 0 0 0 0 0 0 0 0 0 0 0 0 0 0 0 0 0 0 0 6 0 6 11 29 5 3 17 86 297 414 427
12 1 6 29 1 1 3 39 0 0 0 0 0 0 0 0 0 0 0 0 0 0 0 0 0 0 0 0 0 0 0 10 8 8 4 4 11 38 22 0 0 7 64 277 415
2 5 6 11 1 0 16 36 0 0 0 0 0 0 0 0 0 0 0 0 0 0 0 0 0 0 0 0 0 0 5 12 4 0 10 0 0 17 0 0 10 26 1 13 266
21 0 38 2 0 0 29 22 0 0 0 0 0 0 0 0 0 0 0 0 0 0 0 0 0 0 0 0 0 0 0 0 13 0 0 0 0 0 0 0 0 19 21 25 9
1 5 16 30 0 2 10 12 0 0 0 0 0 0 0 0 0 0 0 0 0 0 0 0 0 0 0 0 0 0 0 0 12 14 0 1 0 4 0 0 0 0 0 55 136
8 8 1 31 45 2 5 0 0 0 0 0 0 0 0 0 0 0 0 0 0 0 0 0 0 8 0 0 0 0 0 1 29 15 4 0 0 0 0 0 0 0 0 0 31
10 4 20 17 26 2 7 0 0 0 17 0 4 0 0 0 0 0 0 0 0 0 0 0 0 9 1 0 0 7 9 9 1 1 0 0 0 0 0 0 0 0 0 0 0
8 30 35 8 1 12 0 0 8 9 0 30 0 2 25 1 0 0 0 0 0 0 0 0 0 0 0 0 0 0 0 0 0 0 0 1 3 0 0 0 0 0 0 0 0
9 5 16 11 0 16 0 0 8 30 21 27 10 0 41 38 3 0 0 0 0 0 0 0 0 0 0 0 1 0 0 0 0 0 0 0 0 4 0 0 0 6 0 0 0
13 8 2 4 7 0 0 0 0 9 3 45 36 6 24 45 39 18 0 0 0 0 0 0 0 0 0 0 0 0 0 0 0 0 0 2 0 10 0 1 0 0 0 0 0
6 11 20 4 12 0 0 0 0 1 4 0 47 25 16 46 64 60 16 27 13 0 0 0 0 0 0 0 0 0 0 0 0 0 0 0 0 0 0 0 0 0 0 0 0
7 0 27 3 7 6 0 1 0 0 1 0 1 4 11 31 85 26 0 0 0 23 0 6 0 0 0 0 0 0 0 0 0 0 2 0 0 0 0 0 0 0 0 0 0
CIN
-1 -4 -0 -0 -0 -0 -0 -0 -0 -0 -0 -0 -0 -0 -0 -0 -0 -0 -0 -0 -0 -0 -0 -0 -0 -0 -0 -0 -0 -0 -0 -0 -3 -5 -21 -53 -30 -86 -117 -59 -74 -85 -20 -115 -283
-0 -0 -0 -0 -0 -0 -0 -0 -0 -0 -0 -0 -0 -0 -0 -0 -0 -0 -0 -0 -0 -0 -0 -0 -0 -0 -0 -0 -0 -0 -0 -0 -0 -0 -0 -52 -27 -56 -52 -41 -84 -130 -131 -175 -237
-0 -0 -0 -0 -0 -0 -0 -0 -0 -0 -0 -0 -0 -0 -0 -0 -0 -0 -0 -0 -0 -0 -0 -0 -0 -0 -0 -0 -0 -0 -1 -0 -0 -0 -0 -47 -36 -58 -40 -16 -7 -96 -110 -116 -146
-0 -0 -0 -0 -0 -3 -0 -0 -0 -0 -0 -0 -0 -0 -0 -0 -0 -0 -0 -0 -0 -0 -0 -0 -0 -0 -0 -0 -0 -0 -0 -0 -0 -116 -74 -31 -38 -32 -38 -39 -33 -72 -83 -101 -112
-0 -0 -0 -0 -0 -1 -2 -0 -0 -0 -0 -0 -0 -0 -0 -0 -0 -0 -0 -0 -0 -0 -0 -0 -0 -0 -0 -0 -0 -0 -0 -0 -36 -51 -61 -72 -52 -48 -20 -19 -42 -22 -31 -37 -36
-0 -0 -0 -0 -0 -11 -2 -0 -0 -0 -0 -0 -0 -0 -0 -0 -0 -0 -0 -0 -0 -0 -0 -0 -0 -0 -0 -0 -0 -0 -49 -44 -92 -54 -50 -29 -37 -50 -33 -32 -55 -27 -14 -22 -22
-2 -0 -0 -0 -0 -0 -10 -13 -0 -0 -0 -0 -0 -0 -0 -0 -0 -0 -0 -0 -0 -0 -0 -0 -0 -0 -0 -0 -0 -0 -26 -12 -24 -19 -37 -42 -23 -12 -63 -50 -45 -17 -5 -3 -0
-1 -1 -0 -0 -0 -0 -0 -18 -0 -0 -0 -0 -0 -0 -0 -0 -0 -0 -0 -0 -0 -0 -0 -0 -0 -0 -0 -0 -0 -14 -18 -0 -0 -21 -41 -38 -4 -56 -91 -79 -61 -95 -35 -88 -17
-1 -1 -2 -0 -0 -0 -0 -0 -0 -0 -0 -0 -0 -0 -0 -0 -0 -0 -0 -0 -0 -0 -0 -0 -0 -0 -0 -0 -0 -2 -12 -8 -19 -13 -23 -21 -7 -51 -85 -84 -86 -91 -152 -115 -45
-1 -0 -0 -0 -0 -0 -0 -0 -0 -0 -0 -0 -0 -0 -0 -0 -0 -0 -0 -0 -0 -0 -0 -0 -0 -0 -0 -0 -2 -3 -3 -4 -5 -8 -28 -13 -2 -39 -85 -90 -65 -39 -127 -103 -79
-1 -0 -0 -0 -0 -0 -0 -0 -0 -0 -0 -0 -0 -0 -0 -0 -0 -0 -0 -0 -0 -0 -0 -0 -0 -0 -0 -0 -0 -0 -4 -5 -2 -0 -11 -9 -7 -41 -78 -79 -67 -39 -23 -49 -71
-4 -1 -1 -3 -0 -0 -0 -0 -0 -0 -0 -0 -0 -0 -0 -0 -0 -0 -0 -0 -0 -0 -0 -0 -0 -0 -0 -0 -0 -5 -8 -2 -10 -0 -5 -17 -12 -27 -73 -70 -54 -29 -19 -8 -9
-6 -3 -2 -3 -0 -0 -0 -0 -0 -0 -0 -0 -0 -0 -0 -0 -0 -0 -0 -0 -0 -0 -0 -0 -0 -0 -0 -0 -0 -11 -5 -10 -0 -0 -0 -7 -15 -40 -70 -62 -57 -57 -31 -12 -11
-4 -5 -3 -0 -0 -0 -0 -0 -0 -0 -0 -0 -0 -0 -0 -0 -0 -0 -0 -0 -0 -0 -0 -0 -0 -0 -0 -0 -0 -0 -0 -0 -7 -0 -4 -0 -9 -11 -24 -69 -74 -59 -56 -44 -35
-0 -3 -6 -4 -0 -0 -0 -0 -0 -0 -0 -0 -0 -0 -0 -0 -0 -0 -0 -0 -0 -0 -0 -0 -0 -0 -0 -0 -0 -2 -0 -14 -13 -8 -30 -25 -5 -25 -1 -29 -40 -66 -53 -43 -38
-0 -2 -8 -0 -0 -0 -0 -0 -4 -0 -0 -0 -0 -0 -0 -0 -0 -0 -0 -0 -0 -0 -0 -0 -0 -0 -0 -0 -0 -0 -0 -0 -0 -13 -0 -22 -25 -2 -5 -15 -18 -19 -45 -50 -50
-16 -8 -3 -1 -0 -0 -0 -13 -0 -0 -0 -0 -0 -0 -0 -0 -0 -0 -0 -0 -0 -0 -0 -0 -0 -0 -0 -0 -0 -0 -0 -3 -3 -4 -4 -72 -60 -14 -17 -0 -0 -55 -26 -38 -41
-5 -19 -9 -8 -9 -0 -3 -0 -0 -0 -0 -0 -0 -0 -0 -0 -0 -0 -0 -0 -0 -0 -0 -0 -0 -0 -0 -0 -0 -0 -2 -12 -4 -0 -2 -0 -0 -12 -0 -7 -148 -123 -13 -114 -48
-1 -0 -0 -17 -0 -0 -3 -0 -0 -0 -0 -0 -0 -0 -0 -0 -0 -0 -0 -0 -0 -0 -0 -0 -0 -0 -0 -0 -0 -0 -0 -6 -50 -0 -0 -1 -0 -0 -0 -0 -0 -88 -132 -132 -114
-0 -2 -4 -0 -0 -0 -6 -1 -0 -0 -0 -0 -0 -0 -0 -0 -0 -0 -0 -0 -0 -0 -0 -0 -0 -0 -0 -0 -0 -0 -0 -0 -66 -57 -1 -23 -0 -2 -0 -0 -0 -0 -0 -75 -117
-0 -1 -0 -0 -1 -0 -9 -0 -0 -0 -0 -0 -0 -0 -0 -0 -0 -0 -0 -0 -0 -0 -0 -0 -1 -22 -1 -0 -0 -0 -5 -57 -43 -60 -69 -0 -0 -0 -0 -0 -0 -0 -0 -0 -96
-0 -0 -1 -1 -0 -1 -0 -0 -0 -0 -3 -0 -15 -0 -0 -0 -0 -0 -0 -0 -0 -0 -0 -0 -0 -2 -0 -0 -0 -7 -4 -27 -1 -69 -0 -0 -0 -0 -0 -0 -0 -0 -0 -0 -0
-0 -0 -1 -28 -0 -0 -0 -0 -3 -3 -0 -3 -0 -2 -38 -5 -0 -0 -0 -0 -0 -0 -0 -0 -0 -0 -0 -0 -0 -0 -0 -0 -0 -0 -15 -11 -85 -0 -0 -0 -0 -0 -0 -0 -0
-1 -0 -0 -0 -1 -2 -0 -0 -1 -2 -3 -1 -2 -0 -19 -14 -31 -0 -0 -0 -0 -0 -0 -0 -0 -0 -0 -0 -1 -0 -0 -0 -0 -0 -0 -0 -0 -29 -0 -0 -0 -39 -0 -0 -0
-0 -0 -0 -0 -0 -0 -0 -0 -0 -1 -3 -3 -2 -2 -15 -14 -22 -38 -0 -0 -0 -0 -0 -0 -0 -0 -0 -0 -0 -0 -0 -0 -0 -0 -0 -12 -2 -43 -0 -1 -0 -0 -0 -0 -0
-0 -1 -0 -2 -0 -0 -0 -0 -0 -1 -4 -0 -2 -2 -24 -25 -14 -30 -65 -83 -59 -0 -0 -0 -0 -0 -0 -0 -0 -0 -0 -0 -0 -0 -0 -0 -0 -0 -0 -0 -0 -0 -0 -0 -0
-1 -0 -1 -2 -1 -0 -0 -5 -0 -0 -1 -0 -1 -2 -55 -102 -83 -98 -0 -0 -0 -72 -0 -56 -0 -0 -0 -0 -0 -0 -0 -0 -0 -0 -24 -0 -0 -0 -0 -0 -0 -0 -0 -0 -0
Wind_Speed
28 28 28 29 30 30 30 31 31 32 33 34 35 35 34 33 29 16 15 17 16 14 15 16 15 15 15 15 14 13 18 14 14 17 18 18 17 16 16 15 16 19 19 12 8
30 30 29 29 30 30 31 31 32 32 33 34 35 35 34 34 23 14 14 14 15 14 14 13 14 14 15 14 14 16 18 13 15 18 19 19 19 15 15 15 16 17 11 7 7
32 32 31 31 31 31 31 32 32 33 33 34 35 35 34 30 19 14 14 12 13 13 13 13 14 14 15 15 16 11 14 16 18 19 21 20 15 14 19 13 17 11 9 7 7
33 33 33 32 32 32 32 32 33 33 34 34 34 36 36 20 21 14 14 10 12 13 14 15 14 14 15 15 14 14 12 17 20 20 19 19 15 15 18 20 16 9 8 6 6
32 33 33 33 33 33 33 33 33 33 33 33 34 34 26 21 17 15 13 11 12 13 13 14 13 14 14 14 13 11 15 18 18 16 13 15 16 17 17 15 15 13 5 5 5
31 32 32 32 32 33 33 34 34 33 33 32 32 32 23 22 15 11 10 10 10 10 12 12 13 13 13 12 12 16 14 14 12 13 13 14 15 14 15 15 15 16 9 6 7
32 31 31 32 32 32 33 33 34 34 33 32 30 25 24 17 13 8 8 9 9 9 11 12 13 12 14 12 12 12 14 14 15 15 16 15 15 15 15 16 16 15 18 12 6
32 31 31 32 31 32 33 33 33 33 34 29 22 23 20 15 8 4 5 7 8 9 10 12 11 10 11 12 11 12 14 16 16 16 14 13 14 16 16 15 16 16 12 2 17
32 31 31 31 30 31 32 33 32 31 25 18 17 18 21 14 11 1 3 7 5 7 8 10 10 10 9 8 9 10 11 15 10 21 17 17 13 15 15 16 19 21 26 25 27
31 31 30 30 30 28 30 31 30 24 20 17 19 21 15 15 11 7 3 3 6 6 9 8 8 7 7 8 10 9 11 11 12 19 22 19 17 13 13 15 16 21 24 26 28
31 30 30 29 28 28 26 25 24 22 19 22 17 20 18 17 13 7 3 1 4 4 6 7 6 6 7 4 10 11 11 16 15 14 21 21 20 10 11 13 15 18 24 26 28
31 30 29 29 29 26 23 25 25 25 33 28 28 23 23 18 17 9 2 2 2 6 5 7 5 7 8 5 4 6 11 12 18 17 21 22 21 8 10 15 16 17 22 26 26
32 30 29 28 28 24 24 24 21 25 32 31 26 27 21 12 16 9 6 4 5 8 7 6 12 10 12 9 4 6 10 14 20 18 22 22 20 11 13 13 15 16 16 21 22
35 31 29 26 26 23 25 21 19 18 35 33 25 24 15 12 18 9 9 5 11 10 7 4 8 9 10 10 4 8 8 18 20 20 18 18 14 15 8 13 15 15 15 13 15
35 31 28 26 27 23 19 18 14 16 38 20 18 12 12 12 8 11 11 9 6 2 2 3 6 8 8 9 6 12 9 15 18 20 20 16 21 11 11 5 12 15 16 15 16
35 32 28 29 30 23 16 18 15 27 39 22 14 14 13 14 13 6 12 15 20 8 3 7 6 5 6 8 6 8 10 15 14 18 19 16 19 17 8 8 10 3 14 21 23
32 31 30 30 29 23 21 18 30 39 22 23 18 13 15 15 14 10 16 17 12 9 6 3 1 5 5 7 6 4 9 11 14 12 18 17 16 19 13 11 14 18 11 12 23
35 36 36 33 34 28 23 26 42 37 32 18 15 13 15 13 18 14 16 19 17 10 6 5 4 4 3 7 4 9 6 12 16 15 14 15 16 15 17 24 24 21 25 17 4
29 35 40 38 35 31 29 44 45 40 29 28 16 17 16 17 19 17 17 21 19 14 9 6 5 8 4 2 6 2 5 18 18 17 20 22 20 23 15 17 16 19 14 14 12
24 31 41 35 32 34 38 51 43 32 25 22 33 18 20 16 21 21 19 21 21 17 13 17 9 11 6 3 6 7 4 6 17 21 24 17 20 16 18 16 17 16 15 13 16
25 31 29 31 31 40 48 50 46 34 28 27 24 25 20 18 22 24 23 18 24 19 18 16 20 13 7 3 3 2 3 15 20 23 25 26 21 15 18 16 16 17 17 18 18
28 35 18 24 42 45 50 49 43 39 34 30 29 27 23 24 23 28 29 22 20 21 19 16 20 15 9 9 10 6 5 5 6 21 24 27 30 21 19 15 12 13 18 19 20
32 31 21 25 41 51 51 57 51 39 39 34 30 29 25 26 27 28 27 26 23 19 23 16 21 16 16 14 12 9 8 10 19 26 30 30 27 12 14 17 10 13 19 18 19
31 34 28 35 35 42 52 55 53 51 45 44 37 29 27 27 26 26 27 22 28 25 23 17 22 15 18 17 11 6 6 7 8 10 31 34 33 21 25 19 18 16 18 18 16
33 35 33 37 36 41 49 55 56 60 55 39 38 36 28 27 27 28 22 22 23 24 25 26 31 21 20 20 25 9 9 8 14 13 22 33 34 28 24 23 21 22 21 19 15
36 33 33 31 37 37 47 62 59 57 52 56 43 37 32 33 25 24 23 19 24 23 23 26 32 29 29 26 18 11 10 11 12 10 29 36 36 27 27 21 22 23 20 16 14
40 37 33 40 36 38 45 62 59 61 63 48 48 41 42 39 29 24 24 25 26 23 25 27 26 22 27 19 22 25 12 8 9 13 21 25 35 32 28 27 23 21 18 14 11
Wind_Direction
309 311 311 311 312 314 316 319 321 324 326 328 331 336 339 342 347 13 15 17 31 54 65 64 67 64 72 64 64 78 227 302 320 295 305 318 315 319 305 314 310 297 292 311 306
306 308 309 309 309 311 315 315 318 319 321 324 327 333 339 339 353 6 19 27 42 70 60 64 68 75 62 72 97 165 224 336 321 289 292 308 310 333 329 326 322 298 321 328 314
301 303 304 305 307 309 310 312 313 315 316 320 325 328 337 340 353 6 24 37 60 72 67 71 83 77 68 83 126 250 251 315 303 291 273 302 0 354 294 351 327 327 315 330 339
299 299 300 302 302 304 307 309 310 313 313 318 321 320 321 353 339 16 12 51 72 73 77 75 84 71 71 88 83 133 126 231 259 274 266 316 3 7 324 309 344 16 327 329 339
302 301 299 299 299 299 301 305 306 310 314 316 317 320 337 336 340 1 22 66 75 77 75 73 78 70 63 74 86 132 219 239 236 259 41 7 343 353 340 6 27 22 355 -0 5
303 303 301 299 300 300 300 301 303 307 312 315 317 321 331 326 354 13 43 64 70 77 74 78 69 64 50 65 83 11 203 178 353 58 13 51 20 20 19 35 29 29 12 32 50
300 303 304 302 299 301 301 301 300 301 306 309 314 325 319 325 356 27 56 48 65 80 68 75 74 76 18 59 53 199 94 203 123 142 148 105 93 353 64 61 49 49 56 72 36
298 300 303 305 301 300 301 300 302 302 305 311 317 314 318 337 1 37 54 39 65 86 62 67 76 82 42 13 66 58 136 351 173 136 115 144 336 73 78 66 58 61 59 215 195
294 297 300 303 304 302 301 300 303 305 313 323 324 318 314 329 317 142 98 20 56 59 70 70 73 81 56 77 91 67 10 316 353 184 242 180 296 76 89 90 100 114 146 173 162
291 294 297 300 302 304 305 303 303 310 313 318 309 309 309 317 315 316 138 39 26 60 42 64 73 75 68 112 121 30 355 348 338 219 204 200 237 74 95 110 110 135 148 157 160
286 290 293 297 300 301 308 309 305 307 305 294 303 296 312 315 302 291 318 95 32 73 109 57 73 98 111 51 331 326 341 306 308 298 245 221 222 84 102 118 128 138 160 164 168
281 285 288 292 294 296 301 300 302 304 292 291 285 285 286 309 291 279 267 165 157 145 66 55 96 60 96 63 39 4 324 331 289 291 260 276 242 37 118 143 139 142 158 173 167
274 279 282 287 291 290 291 295 307 306 290 288 286 283 281 261 279 257 221 254 176 161 139 101 31 71 107 100 27 350 329 310 288 296 262 262 282 341 134 140 145 150 145 157 160
270 271 277 281 283 283 288 298 304 306 287 287 285 282 269 269 271 239 207 239 284 171 138 80 54 87 107 113 34 336 328 290 287 274 283 271 309 298 97 145 160 158 156 151 154
270 265 267 267 280 277 289 299 299 302 278 300 288 294 281 229 278 222 198 247 221 250 99 80 101 103 106 121 102 313 337 306 288 268 276 293 275 334 347 56 153 168 170 167 165
262 261 259 264 265 270 281 293 288 275 269 288 296 280 270 247 265 210 219 256 267 274 241 337 23 78 88 93 96 348 314 308 307 276 286 296 293 316 12 1 350 44 172 182 181
259 255 253 254 255 261 267 269 262 258 281 277 284 282 263 254 247 227 202 202 220 233 203 199 155 26 67 95 96 357 308 307 299 304 292 293 307 296 336 347 325 312 319 183 188
260 252 248 249 252 260 253 250 252 258 253 287 281 277 268 249 251 232 210 211 212 209 254 217 201 183 113 146 100 152 295 297 297 297 312 305 316 325 315 295 301 312 291 290 255
260 249 247 242 242 247 242 241 246 253 258 252 280 274 264 258 263 241 225 211 217 221 234 229 229 327 327 45 142 93 168 284 289 302 299 292 301 301 323 331 343 329 328 293 296
256 252 248 239 234 239 242 240 246 254 255 256 253 269 264 252 250 244 239 232 230 225 238 279 282 301 329 360 308 305 304 310 286 287 288 302 297 316 324 333 331 332 329 325 301
247 253 252 232 228 233 238 237 242 250 251 249 255 256 261 256 247 247 252 259 232 232 238 262 274 294 311 248 178 248 281 291 287 279 279 282 300 323 322 328 333 317 315 314 307
239 244 243 214 227 231 233 234 237 241 247 251 257 256 257 256 255 248 247 243 248 231 225 242 268 275 286 318 307 290 281 233 272 285 283 284 287 317 310 334 338 326 311 306 300
238 240 233 220 231 229 231 236 238 245 240 243 248 250 254 256 254 252 252 249 244 238 241 235 256 268 273 289 297 289 282 285 288 280 274 277 289 3 342 336 350 335 314 309 308
232 233 239 232 233 227 224 230 235 235 239 237 244 248 247 251 255 255 249 253 244 245 250 238 252 238 264 277 293 276 235 239 247 224 274 267 276 310 309 320 322 325 319 313 316
227 234 231 226 224 213 225 228 229 229 229 237 241 241 241 247 249 250 254 249 248 248 250 248 252 258 268 278 284 256 220 218 210 216 227 271 276 297 310 306 311 310 314 316 318
224 228 227 243 228 229 229 230 226 225 227 228 238 238 241 243 247 253 249 251 251 248 248 250 252 258 264 275 284 275 221 220 213 260 281 272 279 301 303 312 307 306 309 319 326
225 228 230 234 229 236 226 228 227 223 224 232 233 239 240 241 252 267 262 256 260 255 247 249 249 258 263 279 285 285 272 239 234 277 286 288 279 292 301 305 303 301 304 312 326